Weather in Sergiyevo

Russia / Republic of Karelia     62°54′09″N   36°01′05″E
temp.,
°C
wind,
m/s
gust,
m/s
humid.,
%
clouds,
%
prec.,
mm/h
press.,
hPa
HPBL,
m
25 july, sun
sun2500:00+12w2362100 0.0 101259
03:00+9nnw117861 0.0 101311
06:00+12sw136485 0.0 101394
09:00+18w464611 0.0 10131015
12:00+21w5733100 0.0 10132535
15:00+19nw3645100 0.0 1014781
18:00+22wnw373499 0.0 10142410
21:00+15wnw116887 0.0 101534
26 july, mon
mon2600:00+12w117933 0.0 101610
03:00+13wsw267496 0.0 1016121
06:00+15w387191 0.0 1016325
09:00+17nw3669100 0.3 1017677
12:00+21nw475338 0.2 10171638
15:00+22nnw594679 0.7 10182102
18:00+21n464671 0.0 10181531
21:00+14ne25706 0.0 1020117
27 july, tue
tue2700:00+11ne24685 0.0 102190
03:00+9ene116997 0.0 102211
06:00+12e1260100 0.0 102290
09:00+17ene11465 0.0 1021525
12:00+22nw24392 0.0 10201468
15:00+23nnw473486 0.0 10191976
18:00+22nnw35385 0.0 10181470
21:00+16e23615 0.0 101851
28 july, wed
wed2800:00+13s22655 0.0 101841
03:00+13s23725 0.0 101662
06:00+15sw311685 0.0 1014348
09:00+20wsw47651 0.5 1012515
12:00+26w374039 0.0 10091862
15:00+27nw363269 0.0 10072483
18:00+26wsw343798 0.0 10061408
21:00+19ene116996 0.0 100514
29 july, thu
thu2900:00+18se117134 0.1 100431
03:00+14s11845 0.1 100311
06:00+16wsw147682 0.1 1002119
09:00+21sw2463100 0.8 1000318
12:00+26sw5635100 0.0 9991545
15:00+21sw71061100 0.0 999778
18:00+18s398377 0.6 996367
21:00+17ssw31095100 4.3 995460